Wind_Speed
70 70 70 70 70 70 71 71 71 69 66 65 66 66 68 69 69 69 68 67 66 66 66 66 66 66 66 67 68 68 69 69 70 71 72 72 73 74
67 68 68 69 70 70 70 69 70 70 68 64 66 67 68 68 68 68 67 67 67 66 67 67 67 68 68 68 68 68 69 70 71 72 73 74 75 76
67 67 67 68 68 68 69 69 69 70 68 65 66 66 67 67 67 68 67 66 66 66 67 67 68 68 69 69 70 70 70 71 72 73 74 74 76 77
67 67 66 67 67 67 68 68 69 69 69 67 67 67 66 67 68 67 68 68 67 67 67 68 68 69 69 70 71 71 72 73 73 74 75 76 77 78
67 67 67 67 66 66 67 68 68 69 69 68 67 67 66 66 67 68 69 69 68 68 68 69 69 70 70 71 72 72 73 74 75 75 76 77 78 79
67 67 67 67 67 67 67 67 67 67 67 66 65 65 65 66 68 68 68 69 69 69 69 69 70 70 71 71 72 72 73 73 74 76 76 77 78 78
66 66 66 66 66 66 66 65 65 65 65 65 64 64 64 65 66 67 68 68 68 68 68 68 69 69 69 70 71 72 72 73 74 75 75 76 76 77
64 64 64 64 64 64 64 64 63 63 63 63 63 63 63 65 66 66 67 67 66 66 67 66 67 67 67 69 70 71 71 72 73 73 73 74 74 75
60 60 60 60 61 62 62 62 62 62 62 62 62 62 63 63 64 65 65 65 64 64 65 64 65 65 66 67 67 68 68 69 70 71 71 72 72 73
58 58 58 58 59 60 60 60 60 60 60 61 60 60 60 61 62 63 64 64 63 62 64 64 63 64 64 64 65 65 65 67 68 69 69 70 70 71
56 57 57 57 57 58 57 56 56 57 58 59 59 58 58 59 60 61 61 62 61 60 62 63 62 63 62 61 60 61 62 64 65 66 67 67 67 67
55 55 55 55 55 55 55 54 54 55 56 57 56 56 56 57 58 59 60 60 60 59 58 60 60 61 59 56 56 57 59 61 63 64 64 64 64 66
53 53 52 53 52 52 52 53 53 54 55 55 54 55 55 56 56 57 58 58 58 56 56 58 57 58 58 54 51 52 55 57 59 61 62 63 63 65
50 49 49 50 50 51 51 52 52 53 53 53 52 52 52 53 53 54 55 55 55 54 54 56 56 56 55 52 50 50 52 55 57 58 59 60 61 62
47 47 47 48 49 49 50 50 50 51 51 50 49 49 50 51 51 51 51 52 51 51 52 53 54 53 52 51 50 50 51 52 54 56 57 58 58 58
45 45 45 46 47 47 47 47 48 48 48 48 47 47 48 48 47 48 48 49 48 47 49 51 51 51 50 50 51 50 50 51 52 54 55 55 54 53
42 42 43 44 44 45 45 45 46 46 46 46 45 45 44 44 44 45 45 46 45 45 44 46 48 49 49 50 50 49 49 50 51 52 52 50 47 45
38 39 40 40 41 42 43 43 43 42 42 42 42 42 42 42 42 43 44 44 43 42 42 43 44 46 47 47 48 48 48 49 48 47 47 44 38 36
37 37 37 38 39 40 40 40 39 39 40 40 40 40 40 39 40 40 40 41 40 40 40 41 43 44 44 42 41 45 45 44 42 40 39 36 30 27
36 36 36 37 37 38 37 37 37 37 38 38 37 37 37 37 36 36 37 37 37 37 37 39 41 42 43 41 38 37 40 39 36 33 30 27 23 21
34 35 35 35 35 35 35 35 35 35 35 34 34 34 34 33 33 34 34 35 35 35 36 36 39 40 39 38 34 32 34 34 31 27 24 20 18 17
32 32 32 32 32 33 32 32 32 32 31 31 30 30 31 31 31 32 32 33 34 35 35 35 35 35 35 34 31 29 29 28 26 23 19 16 14 13
31 30 31 30 30 30 29 29 29 28 28 28 28 29 29 30 30 31 32 33 33 33 32 31 31 31 31 30 29 27 26 24 21 17 14 13 12 13
Wind_Direction
279 280 280 281 281 282 282 282 282 282 282 282 281 281 280 279 279 278 279 279 279 279 278 277 276 276 276 275 274 272 271 269 268 267 266 265 264 263
279 279 280 280 280 281 281 281 282 283 282 282 281 281 280 279 279 279 279 279 279 279 278 278 277 277 276 275 274 273 272 270 269 268 267 266 265 264
280 280 280 280 280 280 280 281 281 282 282 282 282 281 280 279 279 279 279 279 279 279 279 278 277 277 276 275 275 274 273 272 270 269 268 267 267 266
281 281 281 280 280 280 281 281 281 281 282 282 281 281 280 279 279 278 278 279 279 279 279 278 278 277 276 276 275 275 274 273 272 271 270 269 268 267
281 281 280 280 280 281 281 281 281 282 282 282 281 280 280 279 278 278 278 279 278 278 278 278 277 277 277 277 276 275 275 274 273 273 272 271 270 269
281 281 281 280 280 280 281 281 281 281 281 282 281 280 279 279 278 278 277 277 278 278 277 277 277 277 277 277 277 276 276 275 275 274 273 272 272 271
281 281 281 280 280 280 281 281 281 281 281 282 281 281 280 279 278 277 277 277 278 278 278 278 277 277 277 277 277 277 277 276 275 275 274 274 273 272
282 281 281 281 280 280 280 280 280 281 282 282 282 282 281 279 278 278 277 277 278 278 278 277 278 278 277 277 278 278 278 277 276 276 276 275 274 274
282 282 281 281 281 281 280 281 281 282 282 282 282 282 281 279 278 278 278 278 278 278 277 278 278 278 278 278 279 279 278 277 277 276 276 276 276 275
283 282 282 281 281 281 281 281 282 282 283 283 282 282 280 279 279 278 278 279 279 279 279 279 278 278 278 279 279 279 278 277 277 277 277 277 277 276
283 283 282 281 281 281 281 281 282 282 283 284 283 283 281 280 279 279 279 279 279 279 279 280 279 279 279 280 279 279 278 278 278 278 278 278 278 277
284 284 283 282 281 282 282 282 283 283 283 284 283 282 281 281 280 281 281 281 281 281 281 281 281 281 281 281 280 279 279 279 280 280 280 280 280 279
285 284 283 283 283 283 283 284 285 285 285 284 283 283 282 281 281 282 282 283 283 284 283 282 282 282 283 282 281 280 279 279 280 280 281 282 281 281
285 284 284 284 284 285 285 286 286 286 286 285 284 283 283 282 282 283 283 284 285 286 285 285 285 285 285 284 284 283 282 282 281 281 282 283 283 283
286 285 285 285 285 286 287 287 287 287 287 286 285 284 284 284 284 284 284 285 286 287 287 286 287 287 287 288 287 287 285 283 284 284 285 285 285 284
288 287 287 287 287 288 288 288 288 288 287 287 286 286 286 286 286 285 285 286 287 287 287 288 288 289 290 291 291 290 288 287 287 287 287 287 286 284
290 290 289 289 289 289 290 290 290 289 289 289 289 288 287 287 286 286 287 287 288 288 288 289 289 291 292 294 294 293 291 291 291 290 289 289 287 282
292 292 292 292 292 292 292 292 292 291 291 291 290 289 289 288 288 288 289 290 290 290 290 290 290 292 294 296 297 295 294 294 293 292 291 289 284 279
297 296 295 295 295 295 294 294 293 293 293 293 292 291 291 291 290 291 291 291 291 292 292 292 293 295 296 297 297 296 296 295 294 293 291 288 282 274
300 299 298 298 298 298 296 295 295 296 296 295 294 294 294 294 293 292 292 293 293 294 294 295 296 297 299 300 300 298 298 298 297 295 291 285 278 264
303 303 302 301 300 300 299 297 297 299 299 298 298 298 297 296 295 295 295 295 296 297 297 297 298 299 301 302 302 301 300 299 298 295 291 279 268 254
308 307 306 305 305 305 303 301 301 301 301 302 302 302 301 300 299 298 298 298 299 299 299 299 299 301 303 304 304 303 302 300 297 295 289 272 259 240
311 310 310 309 309 309 307 306 306 305 304 304 305 305 305 304 303 302 302 302 302 301 301 301 302 304 305 306 305 305 305 301 296 290 279 263 246 227
Height
5619 5614 5610 5607 5602 5598 5593 5589 5584 5582 5584 5583 5577 5573 5566 5561 5558 5556 5554 5551 5549 5547 5545 5544 5543 5541 5540 5539 5539 5538 5538 5539 5540 5541 5542 5543 5545 5547
5600 5595 5592 5588 5583 5578 5574 5570 5565 5561 5561 5564 5557 5552 5546 5542 5538 5535 5534 5531 5529 5527 5525 5523 5521 5520 5519 5517 5516 5516 5516 5516 5516 5517 5518 5519 5520 5522
5581 5577 5573 5568 5563 5559 5554 5550 5546 5541 5539 5542 5536 5532 5527 5523 5518 5515 5513 5511 5509 5506 5504 5502 5500 5498 5497 5495 5494 5493 5493 5492 5492 5493 5493 5494 5495 5497
5562 5557 5554 5548 5544 5540 5535 5531 5527 5522 5519 5519 5517 5512 5507 5503 5499 5495 5493 5490 5488 5486 5483 5481 5479 5476 5474 5472 5471 5469 5469 5468 5467 5467 5468 5469 5469 5469
5542 5537 5534 5528 5525 5520 5515 5511 5507 5503 5499 5497 5496 5491 5487 5483 5478 5476 5472 5470 5467 5465 5462 5460 5457 5454 5452 5449 5447 5446 5444 5443 5443 5442 5441 5441 5441 5441
5523 5518 5514 5509 5505 5500 5496 5492 5488 5483 5479 5476 5474 5471 5467 5462 5458 5455 5452 5449 5446 5444 5441 5438 5435 5432 5430 5427 5424 5422 5420 5418 5417 5415 5414 5413 5412 5412
5503 5498 5494 5489 5485 5480 5476 5473 5468 5464 5460 5456 5453 5450 5447 5441 5437 5433 5431 5428 5426 5423 5419 5417 5413 5411 5408 5403 5400 5397 5395 5393 5391 5389 5387 5386 5384 5383
5483 5478 5474 5469 5465 5461 5457 5453 5449 5445 5441 5436 5433 5430 5427 5421 5416 5412 5410 5407 5407 5404 5397 5396 5391 5390 5386 5382 5378 5374 5371 5368 5366 5363 5361 5359 5357 5356
5464 5459 5455 5450 5445 5441 5437 5433 5430 5425 5422 5418 5414 5411 5406 5401 5396 5392 5389 5387 5386 5382 5377 5376 5372 5369 5365 5360 5356 5352 5348 5345 5341 5338 5336 5333 5331 5328
5445 5440 5436 5432 5427 5422 5419 5416 5411 5407 5401 5397 5395 5392 5387 5381 5377 5373 5369 5367 5366 5362 5356 5354 5352 5348 5344 5341 5336 5330 5326 5322 5318 5315 5312 5309 5305 5301
5426 5422 5418 5414 5409 5404 5401 5398 5394 5389 5383 5379 5375 5372 5368 5363 5358 5354 5350 5347 5346 5344 5337 5332 5331 5326 5325 5322 5316 5309 5304 5299 5295 5291 5287 5284 5280 5275
5408 5404 5399 5395 5391 5386 5383 5380 5377 5372 5366 5362 5358 5354 5349 5345 5340 5336 5332 5328 5325 5324 5319 5312 5309 5304 5304 5304 5297 5290 5284 5278 5272 5268 5264 5260 5255 5249
5391 5387 5382 5378 5374 5370 5366 5363 5359 5354 5350 5345 5341 5337 5332 5328 5323 5318 5314 5310 5307 5305 5300 5293 5290 5285 5281 5282 5280 5273 5265 5259 5253 5248 5243 5237 5232 5225
5374 5370 5366 5362 5358 5354 5350 5346 5342 5337 5333 5329 5325 5320 5316 5311 5307 5302 5297 5293 5289 5286 5281 5275 5271 5266 5262 5260 5259 5255 5247 5240 5233 5228 5223 5217 5210 5203
5358 5355 5351 5347 5343 5339 5334 5330 5325 5321 5316 5313 5309 5305 5300 5296 5291 5286 5281 5277 5273 5269 5264 5258 5253 5248 5244 5241 5238 5235 5228 5222 5214 5207 5202 5196 5189 5182
5343 5340 5336 5332 5327 5323 5319 5315 5310 5305 5301 5297 5293 5289 5284 5280 5276 5271 5267 5262 5259 5255 5249 5242 5236 5232 5228 5223 5218 5215 5208 5202 5197 5188 5181 5175 5169 5161
5329 5326 5322 5318 5313 5309 5305 5300 5296 5291 5287 5282 5278 5274 5270 5266 5261 5257 5253 5249 5245 5241 5236 5229 5222 5216 5211 5206 5201 5196 5190 5184 5177 5169 5162 5157 5151 5144
5317 5314 5309 5305 5300 5296 5292 5287 5282 5278 5273 5269 5265 5261 5257 5252 5248 5244 5239 5235 5231 5226 5222 5216 5209 5204 5198 5193 5185 5178 5173 5166 5160 5153 5145 5139 5136 5130
5306 5302 5298 5293 5289 5284 5279 5275 5270 5266 5261 5257 5252 5248 5244 5240 5236 5231 5226 5222 5218 5214 5209 5203 5196 5190 5185 5181 5176 5164 5157 5152 5145 5139 5132 5126 5123 5120
5295 5291 5287 5282 5278 5273 5268 5263 5259 5255 5250 5245 5241 5237 5232 5228 5224 5219 5215 5210 5206 5202 5197 5191 5184 5178 5172 5167 5163 5156 5145 5138 5134 5129 5123 5117 5114 5112
5285 5281 5276 5271 5267 5262 5257 5253 5249 5244 5240 5235 5231 5226 5222 5217 5213 5209 5204 5200 5195 5191 5186 5181 5174 5167 5160 5155 5151 5146 5137 5130 5124 5120 5115 5111 5109 5108
5277 5272 5267 5262 5257 5253 5248 5243 5239 5235 5230 5226 5221 5217 5212 5208 5203 5199 5194 5190 5185 5180 5175 5170 5164 5158 5151 5145 5140 5136 5130 5124 5118 5113 5109 5107 5104 5105
5269 5264 5259 5254 5249 5244 5240 5235 5231 5226 5222 5218 5213 5209 5204 5199 5195 5190 5185 5180 5175 5170 5165 5160 5155 5149 5143 5138 5132 5128 5123 5118 5113 5110 5107 5105 5103 5103